OSCAR 7 (AO-7) 1 07530U 74089B 26176.27122769 -.00000034 00000+0 78645-4 0 9992 2 07530 101.9899 189.6021 0012639 115.1712 256.0878 12.53698176361532 PHASE 3B (AO-10) 1 14129U 83058B 26174.68191131 -.00000085 00000+0 00000+0 0 9993 2 14129 25.9176 218.4895 6008564 117.4551 314.9460 2.05872578295624 UOSAT 2 (UO-11) 1 14781U 84021B 26175.87304522 .00001162 00000+0 12372-3 0 9995 2 14781 97.8060 141.3619 0008292 148.6773 211.4941 14.90800616258276 LUSAT (LO-19) 1 20442U 90005G 26175.99605584 .00000102 00000+0 53001-4 0 9998 2 20442 98.8847 198.0168 0011576 177.8494 182.2741 14.34125258903519 EYESAT A (AO-27) 1 22825U 93061C 26176.18096079 .00000079 00000+0 46862-4 0 9995 2 22825 98.6877 243.5916 0009517 79.1910 281.0343 14.30944177708146 ITAMSAT (IO-26) 1 22826U 93061D 26176.15798819 .00000084 00000+0 48577-4 0 9995 2 22826 98.6825 243.4869 0009920 64.2862 295.9344 14.31371311708459 RADIO ROSTO (RS15) 1 23439U 94085A 26176.00931005 -.00000046 00000+0 -10565-3 0 9998 2 23439 64.8179 290.5659 0156204 2.4278 357.7371 11.27583413296785 JAS-2 (FO-29) 1 24278U 96046B 26176.14811663 -.00000016 00000+0 17093-4 0 9991 2 24278 98.5234 23.9293 0350914 75.8351 288.1508 13.53274732474245 TECHSAT 1B (GO-32) 1 25397U 98043D 26175.72087360 .00000044 00000+0 39041-4 0 9992 2 25397 99.0070 168.6697 0001426 148.6020 211.5244 14.24429629452407 ISS (ZARYA) 1 25544U 98067A 26176.18758125 .00009470 00000+0 17725-3 0 9993 2 25544 51.6326 260.4913 0004408 228.8642 131.1966 15.49415960572991 PCSAT (NO-44) 1 26931U 01043C 26176.26137265 .00000085 00000+0 62535-4 0 9990 2 26931 67.0494 223.3886 0006049 265.0171 95.0240 14.31958489291606 SAUDISAT 1C (SO-50) 1 27607U 02058C 26176.17970424 .00000928 00000+0 12668-3 0 9997 2 27607 64.5519 104.2569 0075079 260.9817 98.2786 14.83062534265641 CUTE-1 (CO-55) 1 27844U 03031E 26176.25618352 .00000279 00000+0 13960-3 0 9995 2 27844 98.6736 184.7136 0010021 155.2513 204.9149 14.24340250192828 CUBESAT XI-IV (CO-57) 1 27848U 03031J 26175.96755848 .00000227 00000+0 11865-3 0 9993 2 27848 98.6767 184.1351 0009536 174.0960 186.0333 14.23624582192482 MOZHAETS 4 (RS22) 1 27939U 03042A 26176.30506214 .00000883 00000+0 14418-3 0 9991 2 27939 98.3476 0.8932 0010010 240.4770 244.0899 14.73479266216742 CUBESAT XI-V 1 28895U 05043F 26175.26515780 .00001196 00000+0 19578-3 0 9998 2 28895 98.2991 331.0356 0014129 178.0583 182.0681 14.72647893102798 CUTE-1.7+APD II (CO-65) 1 32785U 08021C 26176.20348305 .00005470 00000+0 34493-3 0 9994 2 32785 97.8276 157.7888 0008994 14.9930 345.1563 15.09522659986404 SEEDS II (CO-66) 1 32791U 08021J 26175.96907043 .00019623 00000+0 61750-3 0 9994 2 32791 97.7519 174.2392 0000309 241.1908 118.9302 15.32990296988484 YUBILEINY (RS30) 1 32953U 08025A 26176.22674582 .00000089 00000+0 57163-3 0 9996 2 32953 82.5048 350.4384 0018605 295.4399 64.4756 12.43180028820695 KKS-1 (KISEKI) 1 33499U 09002H 26176.28502834 .00001254 00000+0 16061-3 0 9991 2 33499 98.1187 98.8556 0006359 263.8182 96.2306 14.83142781937394 SWISSCUBE 1 35932U 09051B 26176.24188242 .00000935 00000+0 19415-3 0 9999 2 35932 98.4030 84.2704 0006545 176.2173 183.9079 14.62495581890335 BEESAT-1 1 35933U 09051C 26176.25551236 .00000777 00000+0 16579-3 0 9990 2 35933 98.3958 83.9028 0004745 188.0709 172.0416 14.61732314890369 ITUPSAT1 1 35935U 09051E 26175.29429429 .00000610 00000+0 13593-3 0 9992 2 35935 98.4043 82.1112 0006604 208.5040 151.5799 14.60449650889770 XIWANG-1 (HOPE-1) 1 36122U 09072B 26176.22378881 .00000416 00000+0 12066-2 0 9990 2 36122 100.4024 129.9275 0007021 211.7007 148.3684 13.16441267794065 O/OREOS (USA 219) 1 37224U 10062C 26176.09849408 .00002094 00000+0 20305-3 0 9998 2 37224 71.9701 62.4189 0012841 46.2089 314.0141 14.93774803117829 JUGNU 1 37839U 11058B 26175.55974894 .00000392 00000+0 64890-4 0 9991 2 37839 19.9602 263.6394 0018528 157.2272 231.8705 14.13778452760070 SRMSAT 1 37841U 11058D 26176.22718632 .00000368 00000+0 55867-4 0 9992 2 37841 19.9735 10.8048 0011711 292.6715 223.4173 14.11577108758954 STRAND-1 1 39090U 13009E 26175.92326149 .00000262 00000+0 10254-3 0 9995 2 39090 98.3924 355.9672 0008147 200.1736 159.9130 14.37167384698177 ZACUBE-1 (TSHEPISOSAT) 1 39417U 13066B 26176.13923660 .00003058 00000+0 23876-3 0 9996 2 39417 97.8051 138.5170 0041881 220.5392 139.2711 15.01227074681925 GOMX-1 1 39430U 13066Q 26176.28897743 .00001508 00000+0 23114-3 0 9992 2 39430 97.6488 16.2404 0129906 51.8356 309.4471 14.69484177671109 CUBEBUG-2 (LO-74) 1 39440U 13066AA 26175.43150673 .00003300 00000+0 30669-3 0 9998 2 39440 97.8904 124.4401 0057754 5.2541 354.9272 14.93815416678072 FUNCUBE-1 (AO-73) 1 39444U 13066AE 26175.67964979 .00006490 00000+0 40220-3 0 9997 2 39444 97.8270 147.2816 0036428 175.4480 184.7087 15.09563414680793 UWE-3 1 39446U 13066AG 26175.43428147 .00003951 00000+0 34050-3 0 9998 2 39446 97.8706 131.5569 0046841 296.6681 62.9747 14.97078120678663 UNISAT-6 1 40012U 14033C 26175.99962804 .00002351 00000+0 25553-3 0 9999 2 40012 97.7883 328.5744 0045835 44.1963 316.2900 14.88280483647325 DUCHIFAT-1 1 40021U 14033M 26175.43754143 .00105271 00000+0 10238-2 0 9991 2 40021 98.0461 235.6243 0001842 104.9324 255.2139 15.65947368656884 QB50P1 1 40025U 14033R 26175.99266348 .00008784 00000+0 43065-3 0 9997 2 40025 98.0964 187.6859 0008613 187.2704 172.8404 15.18365172654213 LILACSAT-2 1 40908U 15049K 26176.26946200 .00021726 00000+0 36606-3 0 9992 2 40908 97.4642 213.4188 0006228 208.7181 151.3729 15.51691507597006 FOX-1A (AO-85) 1 40967U 15058D 26175.73070169 .00001723 00000+0 16308-3 0 9992 2 40967 64.7739 255.5404 0130880 53.6729 307.6381 14.90997570114691 CAS-2T & KS-1Q 1 41847U 16066G 26176.20550696 .00001561 00000+0 22533-3 0 9998 2 41847 98.3820 251.8502 0342889 105.2370 258.6999 14.44718564505957 RADFXSAT (FOX-1B) 1 43017U 17073E 26176.14540636 .00007866 00000+0 34436-3 0 9993 2 43017 97.4699 43.1975 0148682 301.5265 57.1515 15.12819327466594 DIWATA-2B 1 43678U 18084H 26176.30570145 .00001856 00000+0 15241-3 0 9991 2 43678 98.1206 12.8675 0012976 144.6111 215.5975 15.00483339417437 ES'HAIL 2 1 43700U 18090A 26176.21850447 .00000154 00000+0 00000+0 0 9993 2 43700 0.0180 336.3405 0002163 153.1552 248.3240 1.00273854 27757 FOX-1CLIFF (AO-95) 1 43770U 18099N 26176.13902104 .00013017 00000+0 49535-3 0 9990 2 43770 97.4384 236.3562 0007227 326.7898 33.2886 15.26862763414438 ITASAT 1 43786U 18099AE 26176.12374923 .00007218 00000+0 34610-3 0 9992 2 43786 97.4030 227.4770 0011297 331.0852 28.9756 15.19145163414118 JY1SAT (JO-97) 1 43803U 18099AX 26176.12045785 .00020902 00000+0 63898-3 0 9998 2 43803 97.4134 238.9829 0004922 226.5613 133.5221 15.33882017414847 UWE-4 1 43880U 18111E 26175.33342868 .00030606 00000+0 61651-3 0 9999 2 43880 97.5840 104.0552 0004422 306.3927 53.6913 15.46518147411888 TIANYAN 01 1 44881U 19093C 26176.25685919 .00000193 00000+0 27747-4 0 9997 2 44881 97.7531 248.2926 0014992 62.9164 297.3580 14.86529062352619 RS-44 & BREEZE-KM R/B 1 44909U 19096E 26175.97968002 .00000031 00000+0 72192-4 0 9991 2 44909 82.5224 334.5259 0218424 126.0184 236.1380 12.79748967303341 SALSAT 1 46495U 20068K 26176.25605951 .00008540 00000+0 29756-3 0 9997 2 46495 97.8852 179.8123 0007805 273.7441 86.2905 15.29904088316598 XW-3 (CAS-9) 1 50466U 21131B 26176.31547689 .00000434 00000+0 14779-3 0 9995 2 50466 98.4979 268.6611 0005359 77.8191 282.3598 14.41363913236287 GREENCUBE (IO-117) 1 53109U 22080E 26174.72102765 -.00000003 00000+0 00000+0 0 9992 2 53109 70.1445 295.9726 0008926 288.1418 71.8270 6.42583215 92482 UMKA 1 (RS40S) 1 57172U 23091G 26176.25242583 .00007458 00000+0 33949-3 0 9994 2 57172 97.5051 234.9186 0014329 92.7767 267.5108 15.20902926165233 CUBESX-HSE 3 (RS42S) 1 57178U 23091N 26176.27674558 .00016663 00000+0 55036-3 0 9992 2 57178 97.5093 241.9664 0011646 69.5906 290.6585 15.31401475165668 MONITOR-3 (RS58S) 1 57180U 23091Q 26176.25367979 .00013908 00000+0 51045-3 0 9994 2 57180 97.5086 239.7591 0012827 75.8601 284.4063 15.27991358165527 MONITOR-4 (RS57S) 1 57182U 23091S 26176.29777125 .00013107 00000+0 48001-3 0 9997 2 57182 97.5080 239.7751 0012851 76.0047 284.2621 15.28077575165531 MONITOR-2 (RS39S) 1 57184U 23091U 26176.28383691 .00005533 00000+0 26732-3 0 9990 2 57184 97.5074 234.5144 0012775 86.6482 273.6214 15.18979315165183 SVYATOBOR 1 (RS60S) 1 57187U 23091X 26176.25234237 .00011202 00000+0 42798-3 0 9991 2 57187 97.5091 240.1141 0010606 70.1244 290.1137 15.26740900165543 VIZARD-METEO (RS38S) 1 57189U 23091Z 26176.22504618 .00020750 00000+0 58801-3 0 9993 2 57189 97.5094 245.8719 0007698 53.1711 307.0237 15.36259666165924 POLYTECH-UNIVERSE 3 (R*) 1 57191U 23091AB 26176.30995963 .00006356 00000+0 30426-3 0 9991 2 57191 97.5048 234.0446 0017081 101.1195 259.1961 15.19184060165185 UTMN 2 (RS27S) 1 57203U 23091AP 26176.22461939 .00015386 00000+0 49599-3 0 9991 2 57203 97.5089 243.5574 0008760 59.6938 300.5169 15.32230916165770 KUZGTU 1 (RS47S) 1 57217U 23091AV 26176.27504213 .00015492 00000+0 53403-3 0 9991 2 57217 97.5067 240.8375 0011981 73.0259 287.2293 15.30028039165616 SONATE-2 1 59112U 24043Q 26176.16166258 .00047417 00000+0 60151-3 0 9996 2 59112 97.5532 327.0504 0007286 169.3652 190.7759 15.59278248129132 MESAT1 1 60209U 24125G 26175.85014621 .00067536 00000+0 71196-3 0 9992 2 60209 97.2287 33.5111 0010360 176.5762 183.5570 15.63976576110761 OOV-CUBE (TUBSAT-30) 1 60240U 24128F 26176.23970213 .00001615 00000+0 13344-3 0 9998 2 60240 61.9924 197.4933 0043634 135.5626 224.8979 15.02799943107322 COLIBRI-S (RS67S) 1 61746U 24199M 26176.27205536 .00025961 00000+0 49672-3 0 9994 2 61746 97.2989 50.2012 0006501 238.5443 121.5172 15.48029482138667 HORS 3 (RS81S) 1 61753U 24199U 26176.26096547 .00046671 00000+0 68205-3 0 9995 2 61753 97.2973 52.2649 0004222 230.7507 129.3373 15.55492749138813 HORS 4 (RS82S) 1 61754U 24199V 26176.26090217 .00063316 00000+0 76859-3 0 9993 2 61754 97.2919 53.5192 0004142 214.4875 145.6114 15.60395478138900 SIT-2086 1 61764U 24199AF 26176.24901584 .00045196 00000+0 70746-3 0 9995 2 61764 97.2934 52.7012 0005532 213.3597 146.7309 15.53602532135687 HYPERVIEW 1G (RS66S) 1 61772U 24199AP 26176.24903614 .00198069 00000+0 11458-2 0 9992 2 61772 97.2857 56.3874 0005668 190.3743 169.7408 15.78026726135949 ALTAIR (RS65S) 1 61779U 24199AW 26176.24959035 .00013843 00000+0 38181-3 0 9996 2 61779 97.3028 45.5477 0010752 277.4096 82.5926 15.37157754138350 ASRTU-1 (AO-123) 1 61781U 24199AY 26176.30975906 .00009092 00000+0 26289-3 0 9998 2 61781 97.2999 44.9075 0011898 280.7470 79.2434 15.35781811135170 SAMSAT-IONOSPHERE (RS7*) 1 61784U 24199BB 26176.28087226 .00056708 00000+0 74538-3 0 9993 2 61784 97.2941 52.3617 0006508 235.8361 124.2279 15.58298671138822 RTU MIREA 1 (RS51S) 1 61785U 24199BC 26176.22288939 .00071852 00000+0 82142-3 0 9999 2 61785 97.2929 53.1765 0006412 227.2253 132.8466 15.61916003135720 TEVEL2-4 1 63213U 25052D 26176.20182265 .00022567 00000+0 66837-3 0 9991 2 63213 97.3900 72.6073 0004923 88.3722 271.8086 15.34868529 71346 TEVEL2-5 1 63214U 25052E 26175.44080326 .00016688 00000+0 49861-3 0 9997 2 63214 97.3897 71.7905 0004890 91.0395 269.1409 15.34655456 71225 TEVEL2-6 1 63215U 25052F 26175.45329957 .00016943 00000+0 50673-3 0 9992 2 63215 97.3903 71.7876 0004713 91.5170 268.6613 15.34620549 71227 TEVEL2-1 1 63217U 25052H 26174.96304379 .00015378 00000+0 46842-3 0 9994 2 63217 97.3870 70.9129 0004942 100.4498 259.7302 15.34061026 71136 TEVEL2-3 1 63218U 25052J 26176.19671782 .00021948 00000+0 66468-3 0 9993 2 63218 97.3879 72.1699 0004854 98.3843 261.7950 15.34170059 71323 TEVEL2-2 1 63219U 25052K 26174.96331783 .00015328 00000+0 46676-3 0 9995 2 63219 97.3875 70.9156 0004967 100.9332 259.2469 15.34070494 71130 TEVEL2-9 1 63237U 25052AD 26176.19045892 .00020165 00000+0 65108-3 0 9991 2 63237 97.3938 71.5013 0008281 109.1603 251.0536 15.32121660 71252 TEVEL2-7 1 63238U 25052AE 26176.23291854 .00019266 00000+0 62803-3 0 9997 2 63238 97.3939 71.4562 0008375 109.3525 250.8623 15.31822175 71253 TEVEL2-8 1 63239U 25052AF 26176.17592529 .00019699 00000+0 64240-3 0 9991 2 63239 97.3940 71.3762 0008411 110.1774 250.0373 15.31804853 71240 INNOSAT 16 (RS92S7) 1 64878U 25155C 26176.26698495 .00006451 00000+0 25686-3 0 9997 2 64878 97.4561 143.3689 0011490 148.5924 211.6003 15.25534033 81901 GEOSCAN 6 (RS92S6) 1 64879U 25155D 26176.29023247 .00011939 00000+0 40939-3 0 9993 2 64879 97.4553 144.8738 0009269 137.7531 222.4426 15.30288622 82006 GEOSCAN 1 (RS92S1) 1 64880U 25155E 26176.28949885 .00013280 00000+0 44653-3 0 9997 2 64880 97.4549 145.0281 0009220 137.6091 222.5864 15.30899079 82018 239ALFEROV (RS61S) 1 64881U 25155F 26176.24744886 .00017373 00000+0 54386-3 0 9999 2 64881 97.4550 145.5745 0008931 135.7626 224.4332 15.33137889 82043 GEOSCAN 2 (RS92S2) 1 64890U 25155Q 26176.21639763 .00012535 00000+0 41824-3 0 9991 2 64890 97.4548 145.1103 0008882 126.4456 233.7605 15.31166377 82012 GEOSCAN 5 (RS92S5) 1 64891U 25155R 26176.23480849 .00016901 00000+0 52414-3 0 9991 2 64891 97.4541 145.7025 0007740 139.1080 221.0744 15.33453721 82053 GEOSCAN 4 (RS92S4) 1 64892U 25155S 26176.28343250 .00016616 00000+0 51279-3 0 9992 2 64892 97.4545 145.8022 0007810 138.4963 221.6874 15.33612176 82068 GEOSCAN 3 (RS92S3) 1 64893U 25155T 26176.27362745 .00021758 00000+0 62861-3 0 9994 2 64893 97.4533 146.2455 0007771 137.4926 222.6920 15.35642152 82090 INNOSAT 3 (RS92S0) 1 64894U 25155U 26176.28372299 .00047792 00000+0 10318-2 0 9996 2 64894 97.4482 147.9758 0007628 132.7475 227.4416 15.44364179 82213 KNACKSAT-2 1 67683U 98067XZ 26175.45987298 .00042840 00000+0 51124-3 0 9996 2 67683 51.6280 257.8789 0008722 247.7542 112.2526 15.60565683 21412